2023/02/07 00:00:00,109.3, 0.9
2023/02/07 00:10:00,109.4, 0.9
2023/02/07 00:20:00,109.4, 1.0
2023/02/07 00:30:00,109.3, 0.9
2023/02/07 00:40:00,109.4, 0.9
2023/02/07 00:50:00,109.3, 0.9
2023/02/07 01:00:00,109.3, 1.1
2023/02/07 01:10:00,109.2, 1.3
2023/02/07 01:20:00,109.1, 1.1
2023/02/07 01:30:00,109.1, 1.1
2023/02/07 01:40:00,109.0, 1.3
2023/02/07 01:50:00,109.0, 1.2
2023/02/07 02:00:00,108.9, 1.1
2023/02/07 02:10:00,108.9, 1.1
2023/02/07 02:20:00,108.9, 1.3
2023/02/07 02:30:00,109.0, 1.4
2023/02/07 02:40:00,109.0, 1.4
2023/02/07 02:50:00,109.0, 1.8
2023/02/07 03:00:00,109.1, 1.5
2023/02/07 03:10:00,109.0, 1.6
2023/02/07 03:20:00,109.0, 1.6
2023/02/07 03:30:00,109.0, 1.4
2023/02/07 03:40:00,108.7, 1.8
2023/02/07 03:50:00,108.7, 2.0
2023/02/07 04:00:00,108.6, 2.0
2023/02/07 04:10:00,108.5, 1.7
2023/02/07 04:20:00,108.6, 1.5
2023/02/07 04:30:00,108.6, 1.4
2023/02/07 04:40:00,108.5, 1.3
2023/02/07 04:50:00,108.3, 1.3
2023/02/07 05:00:00,108.3, 1.2
2023/02/07 05:10:00,108.2, 1.2
2023/02/07 05:20:00,108.2, 1.0
2023/02/07 05:30:00,108.2, 0.8
2023/02/07 05:40:00,108.2, 1.0
2023/02/07 05:50:00,108.2, 1.2
2023/02/07 06:00:00,108.3, 1.1
2023/02/07 06:10:00,108.3, 1.0
2023/02/07 06:20:00,108.3, 1.0
2023/02/07 06:30:00,108.3, 1.2
2023/02/07 06:40:00,108.3, 1.2
2023/02/07 06:50:00,108.3, 0.9
2023/02/07 07:00:00,108.2, 1.6
2023/02/07 07:10:00,108.2, 1.9
2023/02/07 07:20:00,108.1, 1.7
2023/02/07 07:30:00,108.1, 1.9
2023/02/07 07:40:00,108.0, 1.9
2023/02/07 07:50:00,108.1, 2.2
2023/02/07 08:00:00,108.0, 2.4
2023/02/07 08:10:00,108.1, 2.8
2023/02/07 08:20:00,108.1, 3.1
2023/02/07 08:30:00,108.1, 2.9
2023/02/07 08:40:00,108.1, 2.8
2023/02/07 08:50:00,108.1, 3.2
2023/02/07 09:00:00,108.1, 3.4
2023/02/07 09:10:00,108.1, 3.6
2023/02/07 09:20:00,108.4, 5.4
2023/02/07 09:30:00,108.4, 7.1
2023/02/07 09:40:00,108.3, 6.0
2023/02/07 09:50:00,108.4, 7.2
2023/02/07 10:00:00,108.3, 9.9
2023/02/07 10:10:00,108.1, 9.4
2023/02/07 10:20:00,108.1, 9.3
2023/02/07 10:30:00,108.1, 8.5
2023/02/07 10:40:00,108.2, 7.3
2023/02/07 10:50:00,108.2, 7.8
2023/02/07 11:00:00,108.4, 9.7
2023/02/07 11:10:00,108.1, 9.6
2023/02/07 11:20:00,108.1, 8.9
2023/02/07 11:30:00,108.1, 8.9
2023/02/07 11:40:00,107.8, 8.9
2023/02/07 11:50:00,107.8, 9.6
2023/02/07 12:00:00,107.8,10.1
2023/02/07 12:10:00,107.7,11.7
2023/02/07 12:20:00,107.8,11.5
2023/02/07 12:30:00,107.9,12.8
2023/02/07 12:40:00,107.9,13.0
2023/02/07 12:50:00,107.9,12.9
2023/02/07 13:00:00,107.9,12.2
2023/02/07 13:10:00,107.9,13.9
2023/02/07 13:20:00,107.8,13.6
2023/02/07 13:30:00,107.4,11.6
2023/02/07 13:40:00,106.9, 9.6
2023/02/07 13:50:00,106.7, 8.4
2023/02/07 14:00:00,106.5, 8.7
2023/02/07 14:10:00,106.4, 8.6
2023/02/07 14:20:00,106.3, 8.7
2023/02/07 14:30:00,106.2, 6.7
2023/02/07 14:40:00,105.9, 6.0
2023/02/07 14:50:00,105.7, 5.4
2023/02/07 15:00:00,105.6, 4.4
2023/02/07 15:10:00,105.5, 4.3
2023/02/07 15:20:00,105.4, 4.3
2023/02/07 15:30:00,105.2, 4.7
2023/02/07 15:40:00,105.3, 3.5
2023/02/07 15:50:00,105.2, 3.3
2023/02/07 16:00:00,105.1, 2.8
2023/02/07 16:10:00,105.1, 3.0
2023/02/07 16:20:00,105.1, 2.4
2023/02/07 16:30:00,105.0, 2.7
2023/02/07 16:40:00,104.8, 2.5
2023/02/07 16:50:00,104.6, 2.4
2023/02/07 17:00:00,104.6, 2.5
2023/02/07 17:10:00,104.4, 2.0
2023/02/07 17:20:00,104.4, 1.9
2023/02/07 17:30:00,104.3, 1.8
2023/02/07 17:40:00,104.3, 1.8
2023/02/07 17:50:00,104.1, 1.7
2023/02/07 18:00:00,104.2, 1.6
2023/02/07 18:10:00,104.1, 1.7
2023/02/07 18:20:00,104.1, 1.7
2023/02/07 18:30:00,104.0, 1.7
2023/02/07 18:40:00,104.0, 1.8
2023/02/07 18:50:00,104.0, 1.5
2023/02/07 19:00:00,104.0, 1.5
2023/02/07 19:10:00,104.0, 1.6
2023/02/07 19:20:00,103.9, 2.0
2023/02/07 19:30:00,103.8, 1.8
2023/02/07 19:40:00,103.7, 1.5
2023/02/07 19:50:00,103.7, 1.5
2023/02/07 20:00:00,103.7, 1.8
2023/02/07 20:10:00,103.7, 1.7
2023/02/07 20:20:00,103.7, 1.6
2023/02/07 20:30:00,103.7, 1.6
2023/02/07 20:40:00,103.6, 1.6
2023/02/07 20:50:00,103.5, 1.4
2023/02/07 21:00:00,103.3, 1.4
2023/02/07 21:10:00,103.2, 1.4
2023/02/07 21:20:00,103.1, 1.1
2023/02/07 21:30:00,103.0, 1.0
2023/02/07 21:40:00,102.9, 0.9
2023/02/07 21:50:00,102.9, 0.7
2023/02/07 22:00:00,102.9, 0.6
2023/02/07 22:10:00,102.8, 0.5
2023/02/07 22:20:00,102.8, 0.4
2023/02/07 22:30:00,102.8, 0.5
2023/02/07 22:40:00,102.7, 0.4
2023/02/07 22:50:00,102.7, 0.2
2023/02/07 23:00:00,102.7, 0.1
2023/02/07 23:10:00,102.6, 0.1
2023/02/07 23:20:00,102.6, 0.2
2023/02/07 23:30:00,102.5, 0.1
2023/02/07 23:40:00,102.5, 0.1
2023/02/07 23:50:00,102.5, 0.1
